User: anonymous   Login
Location: PSU-Greenbush Astrophysical Observatory
(37.5140°N, 94.9880°W)
Time: 12:06:09
(UTC-06:00)
Language:

Tiros 1 despin weight - Orbit

View from above orbital plane
View from above orbital plane
View from above satellite
View from above satellite

Ground track
Ground track

The orbit data is extracted from the following two-line orbital elements,

1   115U 60002D   20020.14275305 -.00000092  00000-0  16127-4 0  9999
2   115  48.1664 272.1800 0035094 310.8759  48.9115 14.83527255190800
Epoch (UTC): 20 January 2020 03:25:33
Eccentricity: 0.0035094
inclination: 48.1664°
perigee height: 593 km
apogee height: 643 km
right ascension of ascending node: 272.1800°
argument of perigee: 310.8759°
revolutions per day: 14.83527255
mean anomaly at epoch: 48.9115°
orbit number at epoch: 19080

The dashed part of the orbit path shows where the satellite is in the earth's shadow,  

DLR